Preview of NWS' New Version of Forecast
This preview is not operational and should not be used for support decisions.

Regional Weather Roundup (RWR)

Issued by Gray - Portland, ME (GYX)

                            
000
ASUS41 KGYX 210905
RWRGYX
WEATHER ROUNDUP FOR MAINE AND NEW HAMPSHIRE
NATIONAL WEATHER SERVICE GRAY ME
500 AM EDT SAT SEP 21 2019

MEZ002-005-006-010-012-015-018-020-021-024-026-027-029-211000-
MAINE
  
CITY           SKY/WX    TMP DP  RH WIND       PRES   REMARKS
PORTLAND       FAIR      55  50  83 CALM      30.12S                  
SANFORD        FAIR      51  50  96 CALM      30.14R                  
BAR HARBOR     FAIR      59  55  87 CALM      30.08R                  
WISCASSET      FAIR      53  50  89 CALM      30.12S                  
ROCKLAND       FAIR      58  52  80 W5        30.09S                  
FRYEBURG       FAIR      49  47  93 CALM      30.14S                  
LEWISTONAUBURN FAIR      50  49  96 CALM      30.13R                  
AUGUSTA        FAIR      59  53  80 CALM      30.12R                  
WATERVILLE     FAIR      55  53  93 CALM      30.09R                  
BANGOR         FAIR      57  54  89 CALM      30.10R                  
GREENVILLE       N/A     58  54  86 NW7       30.12R                  
MILLINOCKET    FAIR      56  54  93 CALM      30.11R                  
HOULTON        FAIR      50  47  89 CALM      30.07R                  
PRESQUE ISLE   FAIR      56  52  86 NW12      30.10R                  
FRENCHVILLE    FAIR      51  49  92 N8        30.11R                  
CARIBOU        FAIR      55  49  80 NW5       30.08R                  
$$

NHZ002-005-008-009-011-012-014-211000-
NEW HAMPSHIRE
  
CITY           SKY/WX    TMP DP  RH WIND       PRES   REMARKS
PORTSMOUTH     CLEAR     56  52  87 CALM      30.12R                  
ROCHESTER      FAIR      58  50  75 NW9       30.14R                  
NASHUA         FAIR      55  53  93 NW5       30.16R                  
MANCHESTER     FAIR      61  50  67 N7        30.14R                  
CONCORD        FAIR      49  47  93 CALM      30.17R                  
LACONIA        FAIR      56  53  90 SW3       30.17R                  
PLYMOUTH       FAIR      49  47  95 CALM      30.17S                  
BERLIN         FAIR      47  45  93 CALM      30.18S                  
WHITEFIELD     FAIR      44  42  93 CALM      30.19S                  
JAFFREY        FAIR      50  47  89 CALM      30.21R                  
KEENE          FAIR      45  45 100 CALM      30.21R                  
LEBANON        FAIR      47  43  86 CALM      30.20R                  
MT WASHINGTON  FOG       46  46 100 NW36G46     N/A  VSB 1/16         
$$

VTZ005-007-008-211000-
VERMONT
  
CITY           SKY/WX    TMP DP  RH WIND       PRES   REMARKS
ST JOHNSBURY     N/A     48  48 100 MISG      30.19R                  
MONTPELIER     FAIR      48  46  93 CALM      30.24R                  
BURLINGTON     FAIR      54  50  86 CALM      30.19R                  
$$

MAZ007-012-024-CTZ003-RIZ002-NYZ038-NYZ072-211000-
SOUTHERN NEW ENGLAND AND NY
  
CITY           SKY/WX    TMP DP  RH WIND       PRES   REMARKS
BOSTON         FAIR      66  50  56 W8        30.14R                  
WORCESTER      FAIR      61  49  64 NW10      30.18R                  
NANTUCKET      FAIR      62  59  90 W8        30.13S                  
PROVIDENCE     FAIR      58  50  75 W5        30.15S                  
HARTFORD       FAIR      50  48  93 CALM      30.19R                  
ALBANY         MOCLDY    53  49  86 S3        30.21S                  
NEW YORK CITY  PTCLDY    64  54  68 NW7       30.20R                  
$$

ANZ081-ANZ082-ANZ150-NHZ014-MEZ023>029-211000-
COASTAL MARINE OBSERVATIONS
  
STATION/POSITION TIME  TEMP    WIND        PRES    WAVE
                       AIR SEA DIR/SP/G            HT/PER
                 (UTC) (F)     (DEG/KT/KT) (MB)    (FT/S)
MOUNT DESERT ROC 0800          270/ 13/ 13 1017.7R
MATINICUS ROCK   0850   62                 1018.4R
ISLE OF SHOALS   0800   63     300/  7/  7 1019.4R
JEFFREYS LEDGE   0838      62                N/A     6/13
CASHES LEDGE BUO 0850   62 60  310/  8/ 10 1019.5R   7/11
GEORGES BANK BUO 0840   60 58              1019.0R
$$

.............KEY..............
   WCI - WIND CHILL
   TC  - TEMPERATURE IN CELSIUS
   VSB - VISIBILITY IN MILES
   HX  - HEAT INDEX
   FAIR- INDICATES FEW OR NO CLOUDS BELOW 12,000 FT, WITH NO 
         SIGNIFICANT WEATHER AND/OR OBSTRUCTIONS TO VISIBILITY.